Погода в Рубцовске

Хотите узнать прогноз погоды в Рубцовске? Тогда Вам сюда: Погода в Рубцовске

Поиск расширенной информации на нашем сайте:

Полезная информация:

Новости сайта



02.01.2020
Опубликован Долгосрочный прогноз погоды по городам России и ближнего зарубежья на январь 2020 года.
Карты: Прогноз на январь и февраль 2020 года, Сравнение прогнозируемой аномалии приземной температуры воздуха на январь 2020 года по разным моделям.




Погода в Рубцовске - сегодня

Время (UTC), дата Ветер
(°,м/с) 
Видим.   Явления Облачность Т
(°С)
Тd
(°С)
f(%) Тe
(°С)
Pmin
(гПа)
dP
(гПа)
Po
(мм)
O2
(г/м3)
Тmin Tmax R s Состояние
почвы
21 22.09.20 260 (З) 20000 м    10/10 600 м 
[Sc]
+9 +2.6 64 +8  1013.3  -1.2  740  288           
00 23.09.20 210 (ЮЗ) 4{11}  20000 м  в посл. час ливневой дождь  10/10 600 м кучево-дожд. 
[Cb cap]
+7.6 +4.9 83 +6  1013.6  0.2  740  289  +7.6    0.0    влажная 
03 23.09.20 190 (Ю) 20000 м    10/3 600 м верхняя 
[Sc|Ci sp]
+9.1 +4.4 72 +7  1013.4  -0.1  740  288           
06 23.09.20 220 (ЮЗ) 7-13{13}  20000 м  {ливн. осадки}  10/10 600 м кучево-дожд. 
[Cb cap]
+11 +1.5 52 +9  1012.9  -0.3  740  286           
09 23.09.20 220 (ЮЗ) 10-15{16}  20000 м    6/4 600 м верхняя 
[Sc|Ci fib]
+13.4 -0.4 39 +12  1011.5  -1.3  739  284           
12 23.09.20 200 (Ю) 4{15}  20000 м    10/1 600 м верхняя 
[Sc|Cs]
+14.2 -0.1 37 +14  1008.7  -2.5  737  282    +16  0.0     
15 23.09.20 200 (Ю) 10-16{16}  20000 м    10/10 600 м кучево-дожд. 
[Cb cap]
+16 -3.8 25 +15  1004.8  -3.6  734  280           
18 23.09.20 200 (Ю) 6-11{19}  20000 м  слаб. ливневой дождь  10/10 600 м кучево-дожд. 
[Cb cap]
+9.8 +5.2 73 +8  1004.8  -0.6  734  285           
21 23.09.20 180 (Ю) 12-17{17}  20000 м  слаб. ливневой дождь  10/10 600 м кучево-дожд. 
[Cb cap]
+8 +7.6 97 +5  1001.2  -3.6  731  285           
00 24.09.20 170 (Ю) 13-17{17}  20000 м  слаб. ливневой дождь  10/10 600 м кучево-дожд. 
[Cb cap]
+8.6 +7.3 92 +5  998.3  -2.8  729  284  +8      влажная 
03 24.09.20 220 (ЮЗ) 7-10{17}  20000 м  {ливн. осадки}  10/10 600 м кучево-дожд. 
[Cb cap]
+6.9 +5.8 93 +4  1000.8  2.3  731  286  +6.4         
06 24.09.20 250 (З) 7-11{11}  20000 м  {ливн. осадки}  8/8 600 м кучево-дожд. 
[Cb cap]
+10.2 +5.6 73 +8  1000.9  0.4  731  283           
09 24.09.20 210 (ЮЗ) 7-12{17}  20000 м  слаб. ливневой дождь  9/8 600 м кучево-дожд., средняя 
[Cb cap|Ac und]
+9.2 +5 75 +7  1001.7  0.5  732  284           
12 24.09.20 220 (ЮЗ) 8-12{17}  20000 м  слаб. ливневой дождь  10/10 600 м кучево-дожд. 
[Cb cap]
+6.8 +5 88 +4  1004.3  2.4  733  287    +11.9     
15 24.09.20 210 (ЮЗ) 7-13{14}  20000 м  слаб. ливневой дождь  10/10 600 м кучево-дожд. 
[Cb cap]
+6.7 +5.3 91 +4  1005.4  1.1  734  288           
18 24.09.20 230 (ЮЗ) 8-12{16}  20000 м  слаб. ливневой дождь  10/10 600 м кучево-дожд. 
[Cb cap]
+6.2 +5.1 93 +3  1007.1  1.5  735  289           
21 24.09.20 240 (ЮЗ) 7-11{12}  20000 м  слаб. ливневой дождь  10/10 600 м кучево-дожд. 
[Cb cap]
+6.3 +4.7 89 +4  1008.5  1.4  736  289           
00 25.09.20 240 (ЮЗ) 6-10{12}  20000 м  слаб. ливневой дождь  10/10 600 м кучево-дожд. 
[Cb cap]
+6.4 +4.8 89 +4  1010  1.5  738  290  +6      влажная 
03 25.09.20 240 (ЮЗ) 7-10{10}  20000 м  слаб. ливневой дождь  10/10 600 м кучево-дожд. 
[Cb cap]
+6.6 +5.2 91 +4  1011.1  1.2  738  290           
06 25.09.20 250 (З) 7{10}  20000 м  слаб. ливневой дождь  10/10 600 м кучево-дожд. 
[Cb cap]
+6.4 +5.5 94 +4  1013  1.7  740  290           
09 25.09.20 270 (З) 7-10{10}  20000 м  слаб. ливневой дождь  10/10 600 м кучево-дожд. 
[Cb cap]
+7.5 +5.7 88 +5  1015.8  742  290           
12 25.09.20 250 (З) 4{10}  20000 м  слаб. ливневой дождь  10/10 300 м кучево-дожд. 
[Cb cap]
+8 +5.6 85 +7  1018.2  2.2  744  290    +8.6     
15 25.09.20 240 (ЮЗ) 20000 м  {ливн. осадки}  10/10 600 м 
[Sc]
+7.1 +6.2 94 +6  1020.2  1.9  745  292           
18 25.09.20 270 (З) 20000 м  {ливн. осадки}  10/6 1000 м средняя 
[Sc|Ac und]
+5.8 +5.1 95 +5  1021.4  1.1  746  293           
21 25.09.20 290 (З) 4000 м  дымка  10/0 средняя 
[Ac und]
+5 +4.3 95 +5  1021.7  0.2  746  295           
Время (UTC), дата Ветер
(°,м/с) 
Видим.   Явления Облачность Т
(°С)
Тd
(°С)
f(%) Тe
(°С)
Pmin
(гПа)
dP
(гПа)
Po
(мм)
O2
(г/м3)
Тmin Tmax R s Состояние
почвы

Для получения пояснительной информации подведите курсор к названию столбца.

ПОГОДА в Рубцовске - архив

Всё, что Вы хотите узнать о погоде в Рубцовске - удобно и подробно!

Выберите нужную дату (начиная с 1 января 2019* года) и нажмите кнопку "Найти".
Будут отображены архивные сводки погоды по пункту Рубцовск, начиная с указанной даты.


Отображать данные в формате CSV (для использования в таблицах Excel)


Внимание! Наш архив погоды предназначен исключительно для личного некоммерческого использования в познавательных целях. Если Вам необходимы официальные справки о состоянии погоды (для производственных, юридических, коммерческих и т.п. целей), обращайтесь в органы Росгидромета.

*Примечание: данная дата относится к архиву по метеостанциям СССР (Россия, СНГ, Балтия).
Архив по метеостанциям Зарубежной Европы и Азии (кроме Китая) хранится 10 дней, по другим регионам земного шара (Китай, Африка, Америка, Австралия, Океания) - 1 день.

Рубцовск - район местоположения метеостанции


Название, широта, долгота, высота метеостанции:
Рубцовск 51.5°ш. 81.2°д. 219 м над ур. моря [Российская Федерация]

Дополнительная информация

В oтличие oт бoльшинства пoгoдных сайтoв мы публикуем пoдрoбную метеoинфoрмацию в детальнoм прoфессиoнальнoм фoрмате.

Характеристики температуры и влажнoсти вoздуха измеряются на высoте 2 м в тени вдали oт зданий и деревьев.
Скoрoсть ветра измеряется на высoте 10 м (на урoвне рoста челoвека скoрoсть ветра ниже в 1.5-2 раза). Если метеoстанция нахoдится в гoрoде или в лесу, тo скoрoсть ветра занижена на 2-4 м/с пo сравнению с oткрытым местoм. Скoрoсть ветра над акватoриями крупных рек и oзёр, а также на вершинах хoлмoв на 2-5 м/с выше, чем в oбычных услoвиях.
Атмoсфернoе давление в разных тoчках местнoсти мoжет значительнo oтличаться oт давления на метеoстанции, в зависимoсти oт услoвий рельефа (при пoдъёме на 10 м давление пoнижается примернo на 1 мм рт.ст.).